Total_Precipitation_Accumulation
0.00 0.00 0.06 0.05 0.05 0.05 0.08 0.04 0.02 0.02 0.02 0.01 0.08 0.21 0.34 0.32 0.31 0.12 0.18 0.11 0.01 0.00 0.00 0.04 0.28 0.04 0.02 0.21 0.46 0.10 0.00 0.00 0.00 0.00 0.00 0.02 0.02 0.00 0.00 0.01 0.03 0.05 0.15
0.00 0.00 0.05 0.03 0.03 0.03 0.03 0.04 0.01 0.00 0.00 0.05 0.08 0.18 0.36 0.38 0.71 0.39 0.40 0.12 0.04 0.02 0.02 0.09 0.15 0.01 0.11 0.40 0.20 0.00 0.00 0.00 0.00 0.00 0.01 0.01 0.00 0.00 0.00 0.00 0.00 0.00 0.01
0.00 0.00 0.01 0.03 0.01 0.01 0.03 0.02 0.01 0.01 0.03 0.10 0.12 0.19 0.32 1.48 2.31 0.48 0.41 0.18 0.08 0.09 0.14 0.13 0.08 0.02 0.28 0.33 0.00 0.00 0.00 0.01 0.00 0.00 0.00 0.00 0.00 0.00 0.00 0.00 0.00 0.00 0.00
0.00 0.00 0.00 0.01 0.02 0.03 0.03 0.01 0.01 0.03 0.04 0.07 0.10 0.18 0.39 1.51 1.24 0.52 0.37 0.19 0.19 0.13 0.14 0.12 0.14 0.11 0.07 0.00 0.00 0.00 0.00 0.00 0.00 0.00 0.00 0.00 0.00 0.00 0.00 0.00 0.00 0.00 0.00
0.00 0.00 0.00 0.00 0.03 0.06 0.04 0.01 0.01 0.03 0.02 0.06 0.16 0.40 0.52 0.61 0.43 0.16 0.09 0.14 0.24 0.12 0.25 0.33 0.15 0.04 0.00 0.00 0.00 0.00 0.00 0.00 0.00 0.00 0.00 0.00 0.00 0.00 0.00 0.00 0.00 0.00 0.00
0.00 0.00 0.00 0.00 0.02 0.06 0.05 0.03 0.01 0.03 0.01 0.04 0.07 0.08 0.15 0.10 0.05 0.04 0.01 0.03 0.03 0.10 0.22 0.07 0.01 0.01 0.01 0.00 0.00 0.00 0.00 0.00 0.00 0.00 0.00 0.00 0.00 0.00 0.00 0.00 0.00 0.00 0.00
0.00 0.00 0.00 0.02 0.02 0.08 0.11 0.06 0.02 0.01 0.01 0.02 0.09 0.08 0.15 0.09 0.03 0.03 0.04 0.05 0.01 0.03 0.06 0.03 0.00 0.01 0.03 0.02 0.00 0.00 0.00 0.00 0.00 0.00 0.00 0.00 0.00 0.00 0.00 0.00 0.00 0.00 0.00
0.00 0.00 0.01 0.03 0.03 0.04 0.04 0.03 0.01 0.00 0.01 0.03 0.06 0.13 0.18 0.21 0.15 0.11 0.09 0.09 0.03 0.03 0.02 0.01 0.01 0.02 0.00 0.00 0.00 0.00 0.00 0.00 0.00 0.00 0.00 0.00 0.00 0.00 0.00 0.00 0.00 0.00 0.00
0.00 0.00 0.00 0.02 0.03 0.05 0.04 0.04 0.00 0.00 0.01 0.02 0.04 0.06 0.04 0.05 0.08 0.07 0.07 0.08 0.04 0.00 0.00 0.00 0.00 0.00 0.00 0.00 0.00 0.00 0.00 0.00 0.00 0.00 0.00 0.00 0.00 0.00 0.00 0.00 0.00 0.00 0.00
0.00 0.00 0.00 0.00 0.00 0.00 0.01 0.01 0.00 0.00 0.02 0.07 0.07 0.07 0.05 0.03 0.02 0.03 0.06 0.07 0.02 0.00 0.00 0.00 0.00 0.00 0.00 0.00 0.00 0.00 0.00 0.00 0.00 0.00 0.00 0.00 0.00 0.00 0.00 0.00 0.00 0.00 0.00
0.00 0.00 0.00 0.00 0.00 0.00 0.00 0.00 0.00 0.02 0.04 0.05 0.07 0.05 0.03 0.01 0.03 0.04 0.03 0.00 0.00 0.00 0.00 0.00 0.00 0.00 0.00 0.00 0.00 0.00 0.00 0.00 0.00 0.00 0.00 0.00 0.00 0.00 0.00 0.00 0.00 0.00 0.00
0.00 0.00 0.00 0.00 0.00 0.00 0.00 0.00 0.00 0.01 0.01 0.00 0.01 0.02 0.01 0.01 0.00 0.01 0.01 0.01 0.01 0.00 0.00 0.00 0.00 0.00 0.00 0.00 0.00 0.00 0.00 0.00 0.00 0.00 0.00 0.00 0.00 0.00 0.00 0.00 0.00 0.00 0.00
0.00 0.00 0.00 0.00 0.00 0.00 0.00 0.00 0.00 0.00 0.00 0.00 0.00 0.00 0.00 0.00 0.00 0.00 0.00 0.01 0.01 0.01 0.00 0.00 0.00 0.00 0.00 0.00 0.00 0.00 0.00 0.00 0.00 0.00 0.00 0.00 0.00 0.00 0.00 0.00 0.00 0.00 0.00
0.00 0.00 0.00 0.00 0.00 0.00 0.00 0.00 0.00 0.00 0.00 0.00 0.00 0.00 0.00 0.00 0.00 0.00 0.00 0.00 0.00 0.00 0.00 0.00 0.00 0.00 0.00 0.00 0.00 0.00 0.00 0.00 0.00 0.00 0.00 0.00 0.00 0.00 0.00 0.00 0.00 0.00 0.00
0.00 0.00 0.00 0.00 0.00 0.00 0.00 0.00 0.00 0.00 0.00 0.00 0.00 0.00 0.00 0.00 0.00 0.00 0.00 0.00 0.00 0.00 0.00 0.00 0.00 0.00 0.00 0.00 0.00 0.00 0.00 0.00 0.00 0.00 0.00 0.00 0.00 0.00 0.01 0.07 0.05 0.03 0.00
0.00 0.00 0.00 0.00 0.00 0.00 0.04 0.00 0.00 0.00 0.00 0.00 0.00 0.00 0.00 0.00 0.00 0.01 0.02 0.00 0.00 0.00 0.00 0.00 0.00 0.00 0.00 0.00 0.00 0.01 0.00 0.00 0.00 0.00 0.01 0.00 0.01 0.00 0.00 0.05 0.19 0.19 0.12
0.00 0.00 0.00 0.00 0.00 0.00 0.02 0.00 0.00 0.00 0.00 0.00 0.00 0.00 0.00 0.00 0.01 0.02 0.03 0.03 0.01 0.00 0.00 0.01 0.00 0.00 0.00 0.01 0.00 0.02 0.02 0.00 0.00 0.00 0.01 0.00 0.01 0.01 0.04 0.01 0.07 0.13 0.20
0.00 0.00 0.00 0.00 0.00 0.00 0.00 0.01 0.00 0.00 0.00 0.00 0.00 0.00 0.00 0.00 0.01 0.01 0.02 0.03 0.01 0.01 0.02 0.04 0.01 0.00 0.01 0.03 0.01 0.00 0.00 0.00 0.00 0.00 0.00 0.03 0.01 0.00 0.04 0.04 0.06 0.07 0.07
0.00 0.00 0.00 0.00 0.00 0.00 0.00 0.00 0.00 0.00 0.00 0.00 0.00 0.00 0.00 0.00 0.01 0.00 0.00 0.00 0.05 0.12 0.03 0.03 0.02 0.09 0.06 0.06 0.01 0.00 0.00 0.00 0.00 0.00 0.02 0.07 0.23 0.03 0.00 0.01 0.04 0.12 0.05
0.00 0.00 0.00 0.00 0.00 0.00 0.00 0.00 0.00 0.00 0.00 0.00 0.00 0.00 0.00 0.00 0.00 0.03 0.06 0.15 0.14 0.09 0.08 0.11 0.05 0.16 0.05 0.00 0.00 0.01 0.00 0.00 0.01 0.00 0.00 0.00 0.04 0.01 0.00 0.00 0.01 0.01 0.07
0.00 0.00 0.00 0.00 0.00 0.00 0.00 0.00 0.00 0.00 0.00 0.00 0.02 0.04 0.02 0.02 0.03 0.19 0.32 0.24 0.09 0.11 0.04 0.03 0.15 0.38 0.33 0.06 0.13 0.03 0.00 0.00 0.00 0.00 0.00 0.00 0.00 0.02 0.02 0.00 0.00 0.00 0.01
0.00 0.00 0.00 0.00 0.00 0.00 0.00 0.00 0.00 0.00 0.00 0.00 0.10 0.02 0.04 0.05 0.18 0.40 0.54 0.19 0.26 0.30 0.16 0.16 0.24 0.22 0.14 0.02 0.04 0.00 0.00 0.00 0.00 0.00 0.00 0.00 0.00 0.00 0.00 0.00 0.00 0.00 0.00
0.00 0.00 0.00 0.01 0.01 0.00 0.00 0.00 0.00 0.02 0.01 0.00 0.02 0.12 0.05 0.04 0.11 0.08 0.16 0.09 0.19 0.17 0.15 0.18 0.16 0.13 0.13 0.03 0.02 0.06 0.03 0.00 0.00 0.00 0.00 0.00 0.00 0.00 0.00 0.00 0.00 0.00 0.00
0.00 0.00 0.00 0.00 0.00 0.00 0.00 0.00 0.00 0.05 0.20 0.13 0.07 0.07 0.10 0.09 0.01 0.06 0.05 0.14 0.16 0.10 0.06 0.06 0.01 0.00 0.01 0.12 0.01 0.00 0.04 0.01 0.01 0.00 0.00 0.00 0.00 0.00 0.00 0.00 0.00 0.00 0.00
0.00 0.01 0.01 0.02 0.01 0.00 0.01 0.01 0.00 0.02 0.13 0.09 0.08 0.06 0.14 0.24 0.01 0.04 0.10 0.07 0.03 0.01 0.00 0.00 0.00 0.00 0.01 0.03 0.04 0.13 0.21 0.08 0.02 0.00 0.00 0.00 0.00 0.00 0.00 0.00 0.00 0.00 0.00
0.00 0.00 0.00 0.04 0.06 0.00 0.01 0.02 0.03 0.05 0.02 0.01 0.03 0.10 0.07 0.07 0.00 0.01 0.00 0.00 0.00 0.00 0.00 0.00 0.00 0.00 0.00 0.06 0.00 0.01 0.02 0.00 0.00 0.00 0.00 0.00 0.00 0.00 0.00 0.00 0.00 0.00 0.00